When you browse on this site, cookies collect data to enhance your experience and personalize the content and advertising you see.
Visit our Privacy Policy to learn more. By continuing to use the site, you agree to this use of cookies and data.
  • în România
  • Lista ţărilor
  • Pe 7 zile
  • Temperatura apei
  • Meteo pe hartă
  • Widget-uri
  • user-avatar
    Intrare

    Meteo pe oră la Molepolole

    Astăzi, 14 Noiembrie, Joi

    Timp Temperatura Precipitaţii Vânt Presiune Umiditate
    00:00 +24°C° 0.1 mm 3 m/s 662 mmHg 61%
    01:00 +24°C° 0.1 mm 2 m/s 661 mmHg 65%
    02:00 +22°C° 0 mm 3 m/s 662 mmHg 70%
    03:00 +23°C° 0.2 mm 2 m/s 661 mmHg 73%
    04:00 +21°C° 0.2 mm 2 m/s 661 mmHg 76%
    05:00 +22°C° 0.2 mm 1 m/s 661 mmHg 79%
    06:00 +23°C° 0.1 mm 2 m/s 662 mmHg 74%
    07:00 +24°C° 0.1 mm 2 m/s 663 mmHg 68%
    08:00 +26°C° 0.1 mm 2 m/s 663 mmHg 63%
    09:00 +28°C° 0.1 mm 4 m/s 664 mmHg 54%
    10:00 +30°C° 0.1 mm 5 m/s 664 mmHg 45%
    11:00 +33°C° 0.1 mm 6 m/s 664 mmHg 37%
    12:00 +34°C° 0 mm 7 m/s 663 mmHg 30%
    13:00 +35°C° 0 mm 7 m/s 663 mmHg 24%
    14:00 +35°C° 0 mm 7 m/s 662 mmHg 17%
    15:00 +35°C° 0 mm 7 m/s 662 mmHg 15%
    16:00 +35°C° 0 mm 7 m/s 662 mmHg 13%
    17:00 +34°C° 0 mm 7 m/s 661 mmHg 11%
    18:00 +32°C° 0 mm 6 m/s 661 mmHg 13%
    19:00 +30°C° 0 mm 5 m/s 661 mmHg 14%
    20:00 +28°C° 0 mm 4 m/s 661 mmHg 16%
    21:00 +27°C° 0 mm 3 m/s 661 mmHg 16%
    22:00 +26°C° 0 mm 3 m/s 661 mmHg 16%
    23:00 +26°C° 0 mm 3 m/s 661 mmHg 15%

    Mâine, 15 Noiembrie, Vineri

    Timp Temperatura Precipitaţii Vânt Presiune Umiditate
    00:00 +25°C° 0 mm 3 m/s 661 mmHg 17%
    01:00 +23°C° 0 mm 4 m/s 661 mmHg 18%
    02:00 +22°C° 0 mm 4 m/s 660 mmHg 19%
    03:00 +21°C° 0 mm 4 m/s 660 mmHg 22%
    04:00 +21°C° 0 mm 3 m/s 660 mmHg 25%
    05:00 +20°C° 0 mm 3 m/s 660 mmHg 27%
    06:00 +22°C° 0 mm 3 m/s 660 mmHg 27%
    07:00 +24°C° 0 mm 3 m/s 661 mmHg 28%
    08:00 +25°C° 0 mm 3 m/s 662 mmHg 28%
    09:00 +27°C° 0 mm 3 m/s 662 mmHg 23%
    10:00 +29°C° 0 mm 2 m/s 662 mmHg 19%
    11:00 +31°C° 0 mm 1 m/s 662 mmHg 15%
    12:00 +32°C° 0 mm 2 m/s 662 mmHg 13%
    13:00 +34°C° 0 mm 2 m/s 661 mmHg 12%
    14:00 +34°C° 0 mm 2 m/s 661 mmHg 10%
    15:00 +34°C° 0 mm 3 m/s 661 mmHg 10%
    16:00 +35°C° 0 mm 4 m/s 660 mmHg 10%
    17:00 +35°C° 0 mm 4 m/s 660 mmHg 9%
    18:00 +33°C° 0 mm 4 m/s 660 mmHg 12%
    19:00 +30°C° 0 mm 3 m/s 660 mmHg 14%
    20:00 +29°C° 0 mm 2 m/s 660 mmHg 16%
    21:00 +28°C° 0 mm 2 m/s 660 mmHg 17%
    22:00 +27°C° 0 mm 2 m/s 660 mmHg 18%
    23:00 +26°C° 0 mm 1 m/s 659 mmHg 19%

    Poimâine, 16 Noiembrie, Sâmbătă

    Timp Temperatura Precipitaţii Vânt Presiune Umiditate
    00:00 +26°C° 0 mm 1 m/s 659 mmHg 20%
    01:00 +25°C° 0 mm 1 m/s 659 mmHg 22%
    02:00 +23°C° 0 mm 0 m/s 659 mmHg 23%
    03:00 +24°C° 0 mm 1 m/s 659 mmHg 23%
    04:00 +24°C° 0 mm 1 m/s 659 mmHg 23%
    05:00 +23°C° 0 mm 2 m/s 659 mmHg 23%
    06:00 +24°C° 0 mm 3 m/s 660 mmHg 28%
    07:00 +25°C° 0 mm 4 m/s 660 mmHg 33%
    08:00 +26°C° 0 mm 5 m/s 661 mmHg 38%
    09:00 +28°C° 0 mm 4 m/s 661 mmHg 34%
    10:00 +30°C° 0 mm 4 m/s 661 mmHg 30%
    11:00 +33°C° 0 mm 3 m/s 662 mmHg 26%
    12:00 +34°C° 0 mm 2 m/s 661 mmHg 22%
    13:00 +35°C° 0 mm 1 m/s 661 mmHg 17%
    14:00 +36°C° 0 mm 1 m/s 661 mmHg 13%
    15:00 +36°C° 0 mm 1 m/s 660 mmHg 12%
    16:00 +36°C° 0 mm 1 m/s 660 mmHg 11%
    17:00 +37°C° 0 mm 2 m/s 659 mmHg 10%
    18:00 +35°C° 0 mm 2 m/s 659 mmHg 12%
    19:00 +33°C° 0 mm 1 m/s 659 mmHg 14%
    20:00 +31°C° 0 mm 1 m/s 659 mmHg 16%
    21:00 +30°C° 0 mm 2 m/s 659 mmHg 20%
    22:00 +29°C° 0 mm 3 m/s 659 mmHg 24%
    23:00 +28°C° 0 mm 4 m/s 659 mmHg 28%

    17 Noiembrie, Duminică

    Timp Temperatura Precipitaţii Vânt Presiune Umiditate
    00:00 +28°C° 0 mm 4 m/s 658 mmHg 30%
    01:00 +27°C° 0 mm 4 m/s 658 mmHg 32%
    02:00 +26°C° 0 mm 4 m/s 658 mmHg 34%
    03:00 +26°C° 0 mm 4 m/s 658 mmHg 37%
    04:00 +25°C° 0 mm 4 m/s 658 mmHg 39%
    05:00 +23°C° 0 mm 4 m/s 658 mmHg 42%
    06:00 +26°C° 0 mm 4 m/s 659 mmHg 41%
    07:00 +27°C° 0 mm 5 m/s 660 mmHg 39%
    08:00 +28°C° 0 mm 6 m/s 660 mmHg 38%
    09:00 +30°C° 0 mm 6 m/s 661 mmHg 34%
    10:00 +33°C° 0 mm 6 m/s 661 mmHg 29%
    11:00 +35°C° 0 mm 6 m/s 661 mmHg 25%
    12:00 +36°C° 0 mm 6 m/s 661 mmHg 20%
    13:00 +39°C° 0 mm 6 m/s 660 mmHg 16%
    14:00 +40°C° 0 mm 5 m/s 660 mmHg 12%
    15:00 +40°C° 0 mm 5 m/s 659 mmHg 12%
    16:00 +40°C° 0 mm 4 m/s 659 mmHg 12%
    17:00 +40°C° 0 mm 4 m/s 658 mmHg 11%
    18:00 +37°C° 0 mm 3 m/s 658 mmHg 13%
    19:00 +35°C° 0 mm 3 m/s 658 mmHg 15%
    20:00 +34°C° 0 mm 2 m/s 658 mmHg 17%
    21:00 +32°C° 0 mm 2 m/s 659 mmHg 17%
    22:00 +32°C° 0 mm 2 m/s 659 mmHg 18%
    23:00 +31°C° 0 mm 2 m/s 659 mmHg 19%

    18 Noiembrie, Luni

    Timp Temperatura Precipitaţii Vânt Presiune Umiditate
    00:00 +31°C° 0 mm 2 m/s 659 mmHg 19%
    01:00 +30°C° 0 mm 2 m/s 659 mmHg 20%
    02:00 +30°C° 0 mm 2 m/s 659 mmHg 21%
    03:00 +29°C° 0 mm 2 m/s 659 mmHg 21%
    04:00 +28°C° 0 mm 2 m/s 659 mmHg 22%
    05:00 +27°C° 0 mm 2 m/s 659 mmHg 23%
    06:00 +28°C° 0 mm 2 m/s 660 mmHg 22%
    07:00 +29°C° 0 mm 2 m/s 660 mmHg 22%
    08:00 +31°C° 0 mm 2 m/s 661 mmHg 22%
    09:00 +33°C° 0 mm 3 m/s 661 mmHg 21%
    10:00 +35°C° 0 mm 3 m/s 661 mmHg 20%
    11:00 +37°C° 0 mm 3 m/s 661 mmHg 19%
    12:00 +37°C° 0 mm 4 m/s 661 mmHg 19%
    13:00 +37°C° 0 mm 4 m/s 660 mmHg 18%
    14:00 +39°C° 0 mm 5 m/s 660 mmHg 17%
    15:00 +37°C° 0 mm 5 m/s 660 mmHg 19%
    16:00 +36°C° 0 mm 5 m/s 660 mmHg 21%
    17:00 +36°C° 0 mm 5 m/s 659 mmHg 22%
    18:00 +34°C° 0 mm 5 m/s 660 mmHg 26%
    19:00 +33°C° 0 mm 5 m/s 660 mmHg 29%
    20:00 +32°C° 0 mm 5 m/s 660 mmHg 32%
    21:00 +30°C° 0 mm 5 m/s 660 mmHg 38%
    22:00 +29°C° 0 mm 5 m/s 661 mmHg 43%
    23:00 +28°C° 0 mm 5 m/s 661 mmHg 49%

    19 Noiembrie, Marţi

    Timp Temperatura Precipitaţii Vânt Presiune Umiditate
    00:00 +27°C° 0.6 mm 6 m/s 661 mmHg 54%
    01:00 +26°C° 0.6 mm 6 m/s 660 mmHg 59%
    02:00 +24°C° 0.6 mm 7 m/s 660 mmHg 64%
    03:00 +24°C° 0.9 mm 7 m/s 660 mmHg 67%
    04:00 +23°C° 0.9 mm 8 m/s 660 mmHg 70%
    05:00 +23°C° 0.9 mm 8 m/s 660 mmHg 74%
    06:00 +24°C° 0.3 mm 8 m/s 661 mmHg 70%
    07:00 +24°C° 0.3 mm 8 m/s 661 mmHg 67%
    08:00 +26°C° 0.3 mm 7 m/s 661 mmHg 64%
    09:00 +26°C° 1.2 mm 6 m/s 661 mmHg 65%
    10:00 +25°C° 1.2 mm 5 m/s 661 mmHg 67%
    11:00 +25°C° 1.2 mm 4 m/s 661 mmHg 69%
    12:00 +26°C° 0.2 mm 4 m/s 660 mmHg 63%
    13:00 +28°C° 0.2 mm 4 m/s 660 mmHg 57%
    14:00 +29°C° 0.2 mm 3 m/s 660 mmHg 51%
    15:00 +30°C° 0.1 mm 4 m/s 660 mmHg 49%
    16:00 +30°C° 0.1 mm 5 m/s 660 mmHg 47%
    17:00 +32°C° 0.1 mm 5 m/s 660 mmHg 44%
    18:00 +29°C° 0.5 mm 5 m/s 660 mmHg 51%
    19:00 +27°C° 0.5 mm 4 m/s 660 mmHg 59%
    20:00 +25°C° 0.5 mm 3 m/s 659 mmHg 66%
    21:00 +25°C° 0.8 mm 3 m/s 660 mmHg 66%
    22:00 +24°C° 0.8 mm 3 m/s 660 mmHg 67%
    23:00 +24°C° 0.8 mm 2 m/s 661 mmHg 68%
    Arată mai mult